Location: Custodinha
(19.9484°S, 44.0071°W)
Time: 18:50:09
(UTC+00:00)

Daily predictions for brighter satellites

Satellite Brightness Start Highest point End
(mag) Time Altitude Azimuth Time Altitude Azimuth Time Altitude Azimuth
ATLAS 2AS CENTAUR RB 3.8 21:35:24 10° WNW 21:40:14 53° NNE 22:06:46 12° E
Fermi 3.8 21:38:08 10° WSW 21:42:20 87° SSE 21:46:30 10° ENE
Aureole 1 Rocket 3.0 21:39:19 10° NNW 21:42:54 62° WSW 21:45:58 10° S
Meteor 1-5 Rocket 4.1 21:38:04 10° S 21:43:28 90° E 21:48:45 10° N
Palapa B4 Rocket 2.8 21:40:44 10° WNW 21:45:14 74° N 21:48:56 10° E
NOSS 3-2 (A) 4.4 21:40:18 10° SW 21:45:36 44° WNW 21:50:36 10° N
Okean O Rocket 3.0 21:43:28 10° S 21:47:40 44° WSW 21:51:49 10° NNW
CZ-2D R/B 3.2 21:44:05 10° SSE 21:47:56 84° E 21:51:44 10° N
Cosmos 2341 Rocket 4.1 21:41:32 10° S 21:48:00 82° E 21:54:21 10° N
CZ-2C R/B 3.3 21:44:18 10° N 21:49:25 58° W 21:54:33 10° SSW
ASTRO E2 2.9 21:47:26 10° WSW 21:51:21 58° SSE 21:55:02 11° ENE
Lacrosse 5 rocket 2.6 21:49:16 10° NNE 21:51:59 18° ENE 21:54:38 10° ESE
Cosmos 2237 Rocket 2.6 21:47:01 10° S 21:52:24 42° ESE 21:57:43 10° NE
DMSP B5D2-2 4.2 21:49:22 10° NNE 21:54:34 86° WNW 21:59:50 10° SSW
X-37B 2.6 21:53:04 10° WSW 21:55:50 26° NW 21:58:34 10° NNE
Cosmos 2227 Rocket 4.4 21:52:30 10° NW 21:57:20 29° WSW 22:02:14 10° S
GPS 2-18 Rocket1 3.7 21:54:18 10° NW 21:57:56 40° NNE 22:00:49 14° E
Cosmos 2333 Rocket 4.3 21:55:13 10° SW 22:00:02 29° WNW 22:04:51 10° NNW
Cosmos 1271 Rocket 2.6 21:58:01 10° N 22:01:52 82° E 22:05:48 10° S
Cosmos 1763 Rocket 4.4 21:57:58 10° SSE 22:02:27 29° ESE 22:06:43 11° NE
Lacrosse 5 2.1 21:57:57 10° SSW 22:02:59 54° SE 22:07:44 11° NE
Cosmos 44 3.2 22:00:28 10° NNW 22:05:29 73° ENE 22:10:13 10° SSE
Cosmos 2218 Rocket 4.0 21:59:57 10° S 22:06:17 71° E 22:12:37 10° N
BREEZE M DEB (TANK) 3.8 22:07:19 10° SSE 22:08:16 12° SE 22:08:16 12° SE
NOSS 0 Rocket 4.1 22:04:00 10° SSW 22:10:14 80° WNW 22:16:24 10° NNE
SL-16 R/B 3.6 22:07:36 10° SSE 22:11:23 18° ESE 22:12:54 16° E
CENTAUR R/B 3.1 22:06:34 10° SW 22:11:27 44° WNW 22:16:17 10° N
CZ-2C R/B 4.0 22:06:28 10° S 22:12:08 59° WSW 22:17:50 10° NNW
Helios 1A Rocket 3.7 22:10:46 10° SE 22:14:24 29° E 22:17:58 10° NNE
YAOGAN 1 2.5 22:12:29 10° SSE 22:16:50 69° ENE 22:21:07 10° N
GPS 2-17 Rocket1 3.0 22:13:46 10° W 22:18:20 86° N 22:21:12 23° E
Delta 198 3.9 22:18:50 10° WSW 22:22:38 49° S 22:24:56 24° ESE
Cosmos 864 Rocket 4.5 22:16:44 10° S 22:22:56 87° W 22:29:04 10° N
NOSS 3-2 (C) 4.5 22:18:48 10° SW 22:23:57 38° WNW 22:28:49 10° N
Atlas Centaur 2 3.1 22:19:52 10° NNW 22:24:49 25° NNE 22:26:13 23° NE
GP-B 3.3 22:20:39 10° S 22:25:07 74° W 22:29:32 10° N
Meteor 1-19 Rocket 4.0 22:27:24 10° N 22:32:58 78° E 22:38:27 10° S
Cosmos 1980 4.1 22:30:18 10° SSW 22:35:55 63° WNW 22:41:28 10° N
Centaur D-1A AC-35 2.7 22:32:45 10° WSW 22:36:32 39° S 22:37:36 29° SE
Cosmos 1536 3.6 22:32:36 10° SSW 22:36:37 54° W 22:40:33 10° N
Meteor 2-4 Rocket 4.1 22:31:43 10° NNE 22:37:19 44° E 22:42:51 10° SSE
CZ-4 R/B 2.6 22:34:30 10° S 22:38:13 41° WSW 22:41:52 10° NNW
Cosmos 1862 Rocket 4.2 22:34:04 10° NNW 22:38:25 59° W 22:42:47 10° S
Orbus 7S 4.2 22:36:54 10° WSW 22:40:19 73° NNW 22:44:01 29° ENE
Cosmos 1238 Rocket 4.0 22:34:03 10° S 22:40:33 77° W 22:46:14 10° N
ARGOS 3.1 22:36:33 10° SSE 22:42:00 87° ENE 22:47:24 10° NNW
Cosmos 1743 2.5 22:39:53 10° S 22:43:45 73° E 22:44:32 53° NNE
COSMOS 2455 3.0 22:38:16 10° NNW 22:44:15 77° WSW 22:50:17 10° SSE
Cosmos 1544 2.9 22:41:08 10° S 22:44:45 86° E 22:45:30 54° N
Cosmos 2242 Rocket 3.7 22:45:14 49° E 22:45:14 49° E 22:49:25 10° SSE
OAO 2 Rocket 3.9 22:42:27 10° WNW 22:47:39 57° SSW 22:50:50 23° SE
Cosmos 841 Rocket 4.1 22:43:36 10° S 22:48:01 36° ESE 22:48:01 36° ESE
FALCON 9 R/B 4.0 22:43:50 10° W 22:48:39 39° NNW 22:58:58 16° NE
H-2A R/B 3.2 22:45:38 10° S 22:50:37 45° WSW 22:55:42 10° NNW
NATO 3D Rocket 4.5 22:43:02 10° WNW 22:52:46 66° NNE 22:55:27 41° E
Cosmos 540 Rocket 3.6 22:50:44 10° S 22:55:36 50° ESE 22:55:36 50° ESE
Okean-O 4.4 22:58:11 10° SSW 23:02:09 32° WSW 23:06:06 10° NW
ASTEX 1 4.1 22:59:57 10° N 23:04:43 53° W 23:09:35 10° SSW
CZ-2C R/B 2.8 23:02:50 10° W 23:05:20 24° SSW 23:05:20 24° SSW
ATLAS 3B CENTAUR R/B 2.7 23:00:08 10° WNW 23:12:37 69° NNE 23:13:50 59° ENE
CSL-04 Rocket 4.2 23:09:14 10° S 23:14:41 60° WSW 23:20:07 10° NNW
Cosmos 1733 Rocket 4.0 23:11:11 10° SSW 23:15:21 45° W 23:16:23 37° NW
Cosmos 968 Rocket 3.8 23:10:32 10° NNW 23:15:42 64° WSW 23:20:54 10° S
USA 81 4.1 23:12:23 10° S 23:17:43 76° W 23:18:30 63° NNW
Cosmos 2263 Rocket 3.4 23:15:05 10° NW 23:20:17 40° WSW 23:25:34 10° S
Cosmos 1486 Rocket 4.3 23:15:13 10° NNW 23:20:29 67° WSW 23:25:50 10° S
ATLAS 3B R/B 2.4 23:14:03 10° SSW 23:20:53 85° ESE 23:21:34 73° NE
SL-4 R/B 3.5 23:19:21 10° NW 23:29:43 45° WSW 23:30:13 43° SW
Lacrosse 5 rocket 3.6 23:28:00 10° WNW 23:30:53 20° SW 23:30:53 20° SW
Lacrosse 5 4.5 23:43:22 10° W 23:45:31 13° WNW 23:47:00 11° NW
